Location: Petruro
(41.0333°N, 14.7833°E)
Time: 08:44:11
(UTC+00:00)

FALCON 9 DEB - Pass Details

Date: 20 June 2021
Orbit: 422 x 432 km, 53.0° (Epoch: 01 August)

Event Time Altitude Azimuth Distance (km) Brightness Sun altitude
Rises 01:34:19 0° 307° (NW) 2,387 6.9 -16.5°
Reaches altitude 10° 01:36:26 10° 307° (NW) 1,517 5.9 -16.3°
Maximum altitude 01:39:50 83° 220° (SW) 431 2.9 -15.9°
Drops below altitude 10° 01:43:12 10° 132° (SE) 1,502 5.8 -15.5°
Sets 01:45:17 0° 132° (SE) 2,362 6.8 -15.3°
